Regional Weather Roundup
Issued by NWS

Home | Current Version | Previous Version | Text Only | Print | Product List | Glossary On
Versions: 1 2 3 4 5 6 7 8 9 10 11 12 13 14 15 16 17 18 19 20 21 22 23 24 25 26 27 28 29 30 31 32 33 34 35 36 37 38 39 40 41 42 43 44 45 46 47 48 49 50
000
ASUS44 KFWD 231703
RWRTX
NORTH TEXAS HOURLY WEATHER ROUNDUP
NATIONAL WEATHER SERVICE FORT WORTH TX
1200 PM CDT THU MAR 23 2017

NOTE: "FAIR" INDICATES FEW OR NO CLOUDS BELOW 12,000 FEET WITH NO
SIGNIFICANT WEATHER AND/OR OBSTRUCTIONS TO VISIBILITY.

TXZ118-119-231800-
DALLAS/FORT WORTH METROPLEX

CITY           SKY/WX    TMP DP  RH WIND       PRES   REMARKS
DFW AIRPORT    MOSUNNY   78  57  48 S23G32    30.04S
DALLAS LOVE    MOSUNNY   77  57  50 S16G31    30.06S
FTW MEACHAM    SUNNY     77  55  46 S25G36    30.04S
DAL-EXECUTIVE  SUNNY     75  58  55 S14G30    30.05F
FTW-ALLIANCE   MOSUNNY   78  57  48 S18G29    30.03F
FTW-NAS-JRB    MOSUNNY   76  56  49 S24G33    30.04F
FTW-SPINKS     MOSUNNY   75  55  50 S24G33    30.07S
ARLINGTON      SUNNY     75  57  53 S21G32    30.05F
GRAND PRAIRIE  SUNNY     73  55  53 S18G28    30.07F
ADDISON        MOSUNNY   75  57  53 SE18G29   30.06F
MESQUITE       MOSUNNY   75  59  57 S18G25    30.08S
LANCASTER      SUNNY     74  59  59 S18G25    30.08F
$$

TXZ091>094-102>105-117-120-121-131>134-231800-
NORTH CENTRAL TEXAS

CITY           SKY/WX    TMP DP  RH WIND       PRES   REMARKS
SHRMAN/DENISON SUNNY     75  57  53 S20G26    30.06F
GAINESVILLE    SUNNY     74  54  49 S23G33    30.05S
BOWIE          SUNNY     76  54  46 S21G26    30.00F
BRIDGEPORT     SUNNY     75  54  47 S20G26    30.03F
DECATUR        SUNNY     74  55  50 S24G30    30.02F
DENTON         SUNNY     76  58  53 S21G32    30.05R
MCKINNEY       SUNNY     75  59  57 S21G31    30.05F
BONHAM         SUNNY     73  57  56 S22G29    30.07F
GREENVILLE     SUNNY     75  55  50 S20G25    30.09S
ROCKWALL       MOSUNNY   75  59  57 S20G30    30.08S
TERRELL        SUNNY     75  58  55 S21       30.08F
WAXAHACHIE     MOSUNNY   74  60  60 S23G30    30.08F
CLEBURNE       SUNNY     73  61  64 S23G31    30.06F
GRANBURY       SUNNY     77  54  44 SE22G31   30.04F
$$

TXZ083>090-098>101-113>116-127>130-139>142-154-155-231800-
WESTERN NORTH TEXAS

CITY           SKY/WX    TMP DP  RH WIND       PRES   REMARKS
WICHITA FALLS  SUNNY     77  56  48 S26G36    29.95F
WF-KICKAPOO    SUNNY     76  55  48 S22G36    29.96F
VERNON         SUNNY     77  52  41 S24G31    29.91F
ABILENE        SUNNY     73  55  53 S25G37    29.96F
ABILENE-DYESS  SUNNY     74  57  55 SW32G41   29.92F
GRAHAM         SUNNY     77  53  44 S15G26    29.97F
BRECKENRIDGE   SUNNY     77  51  39 S23G32    29.98F
CISCO          SUNNY     73  54  49 S20G30    30.00S
RANGER         SUNNY     73  50  43 S21G28    30.02S
MINERAL WELLS  SUNNY     77  54  44 S20G31    30.00F
STEPHENVILLE   SUNNY     75  53  45 S18G30    30.06S
COMANCHE       SUNNY     76  53  44 S16G30    30.03S
BROWNWOOD      SUNNY     75  52  43 S21G28    30.02F
COLEMAN        SUNNY     74  54  49 S24G32    30.01F
$$

TXZ143>147-156>162-174-175-231800-
CENTRAL TEXAS

CITY           SKY/WX    TMP DP  RH WIND       PRES   REMARKS
WACO           SUNNY     76  59  55 S23G35    30.07F
WACO-MCGREGOR  MOSUNNY   77  60  55 S23G32    30.07F
HILLSBORO      MOSUNNY   75  61  61 S23G30    30.08F
CORSICANA      SUNNY     76  60  57 S21G29    30.10S
MEXIA          SUNNY     75  59  57 S20G31    30.09S
HEARNE         SUNNY     76  63  63 SE13      30.12F
CAMERON        SUNNY     78  60  53 S21G28    30.10F
TEMPLE         SUNNY     77  60  55 S28       30.07F
KILLEEN        SUNNY     75  57  53 S23G30    30.05F
KILLEEN-SKYLRK MOSUNNY   76  58  53 S23G29    30.07F
FORT HOOD      SUNNY     76  56  49 S21G26    30.04F
GATESVILLE     SUNNY     75  55  50 S16G30    30.08F
HAMILTON       SUNNY     76  56  48 S22G32    30.05F
LAMPASAS       SUNNY     76  59  56 S14G28    30.05F
$$

TXZ095>097-106>112-122>126-135>138-148>153-164>167-231800-
EAST TEXAS

CITY           SKY/WX    TMP DP  RH WIND       PRES   REMARKS
PARIS          SUNNY     75  57  53 S14G23    30.10S
SULPHUR SPRNGS SUNNY     75  58  54 S16       30.11S
MOUNT PLEASANT SUNNY     76  57  51 S16G22    30.12F
GILMER         SUNNY     75  58  55 S14G20    30.12F
MINEOLA        SUNNY     75  59  57 S12G20    30.10F
TYLER          SUNNY     77  59  53 S15       30.11F
LONGVIEW       SUNNY     77  60  55 S16G22    30.13F
MARSHALL       SUNNY     75  60  60 S10G16    30.16F
ATHENS         MOSUNNY   73  59  60 S15       30.09F
PALESTINE      SUNNY     76  63  65 S15G21    30.13F
JACKSONVILLE   SUNNY     75  60  59 S14G20    30.15F
HENDERSON      SUNNY     76  59  56 S14       30.14F
CENTER         SUNNY     79  62  55 S13       30.18S
NACOGDOCHES    SUNNY     75  61  60 S14       30.14F
LUFKIN         SUNNY     77  61  57 S12       30.16F
$$

SUPPLEMENTAL OBSERVATIONS (CENTRAL)

CITY           SKY/WX    TMP DP  RH WIND       PRES   REMARKS
$$

SUPPLEMENTAL OBSERVATIONS (WEST)

CITY           SKY/WX    TMP DP  RH WIND       PRES   REMARKS
$$

SUPPLEMENTAL OBSERVATIONS (EAST)

CITY           SKY/WX    TMP DP  RH WIND       PRES   REMARKS
$$

SUPPLEMENTAL OBSERVATIONS ARE A COLLECTION OF AUTOMATED INSTRUMENTS
THAT ARE MAINTAINED BY A VARIETY OF FEDERAL AND STATE AGENCIES.
CERTAIN ELEMENTS...SUCH AS HUMIDITY VALUES AND SUSTAINED WIND
SPEEDS...MAY BE APPROXIMATED.




USA.gov is the U.S. government's official web portal to all federal, state and local government web resources and services.